SCP
0 0 0 0 0 0 0 0 0 0 0 0 0 0 0 0 0 0 0 0 0 0
0 0 0 0 0 0 0 0 0 0 0 0 0 0 0 0 0 0 0 0 0 0
0 0 0 0 0 0 0 0 0 0 0 0 0 0 0 0 0 0 0 0 0 0
0 0 0 0 0 0 0 0 0 0 0 0 0 0 0 0 0 0 0 0 0 0
0 0 0 0 0 0 0 0 0 0 0 0 0 0 0 0 0 0 0 0 0 0
0 0 0 0 0 0 0 0 0 0 0 0 0 0 0 0 0 0 0 0 0 0
0 0 0 0 0 0 0 0 0 0 0 0 0 0 0 0 0 0 0 0 0 0
0 0 0 0 0 0 0 0 0 0 0 0 0 0 0 0 0 0 0 0 0 0
0 0 0 0 0 0 0 0 0 0 0 0 0 0 0 0 0 0 0 0 0 0
0 0 0 0 0 0 0 0 0 0 0 0 0 0 0 0 0 0 0 0 0 0
0 0 0 0 0 0 0 0 0 0 0 0 0 0 0 0 0 0 0 0 0 0
0 0 0 0 0 0 0 0 0 0 0 0 0 0 0 0 0 0 0 0 0 0
0 0 0 0 0 0 0 0 0 0 0 0 0 0 0 0 0 0 0 0 0 0
0 0 0 0 0 0 0 0 0 0 0 0 0 0 0 0 0 0 0 0 0 0
Wind_Speed_500mb
43 45 48 50 50 51 50 50 51 51 50 50 49 48 48 49 49 47 46 46 46 54
21 25 27 30 33 36 38 39 41 41 42 45 48 50 48 45 42 43 48 51 54 56
18 20 23 25 27 29 30 32 34 36 38 39 38 37 37 39 43 45 50 51 52 54
10 11 14 16 19 21 23 25 27 31 35 36 35 38 41 43 46 47 49 52 56 58
4 5 8 9 11 13 16 18 19 22 24 26 29 32 35 37 38 39 40 42 43 44
2 4 6 7 10 12 15 17 18 19 20 21 23 26 28 31 33 35 37 39 41 42
3 5 7 10 12 15 16 17 19 20 21 23 24 27 29 30 32 33 35 39 41 42
7 8 10 12 14 17 18 19 20 22 24 25 27 31 32 31 33 36 35 36 38 39
9 11 12 12 14 15 17 17 20 22 23 25 29 34 37 36 35 35 38 39 38 39
17 18 19 19 19 17 18 20 21 20 20 22 26 33 37 41 38 40 42 43 46 48
20 20 21 21 23 25 25 25 27 27 28 29 32 38 41 48 41 40 42 44 47 49
20 21 23 24 24 25 26 26 27 30 31 32 32 37 42 46 46 44 44 44 47 50
18 20 21 23 23 23 23 23 23 25 27 31 31 33 37 41 43 42 44 48 48 49
14 15 15 16 17 18 20 20 21 22 25 28 30 30 33 36 37 40 46 45 47 49
Wind_Direction_500mb
238 243 247 250 255 259 261 263 263 263 265 267 268 268 270 271 273 272 266 267 269 275
219 228 233 241 250 256 259 259 259 260 261 263 267 270 270 270 269 270 270 271 272 275
212 222 233 240 246 252 256 257 258 259 262 264 267 271 271 269 267 263 266 266 269 272
202 216 228 238 243 249 255 258 260 262 266 266 267 266 266 265 264 263 264 268 269 270
206 237 254 264 266 269 272 275 277 277 275 271 269 268 268 268 268 269 267 268 270 273
255 266 275 282 289 292 292 291 290 288 285 283 281 279 279 279 279 281 283 284 285 287
355 336 325 319 314 308 305 305 303 300 299 296 293 289 286 284 286 290 293 293 294 294
350 347 338 328 319 314 311 308 308 306 304 303 299 292 291 294 297 296 294 295 296 297
330 323 315 311 306 303 304 303 307 308 308 306 303 301 302 303 301 299 297 295 292 291
323 322 321 319 318 314 316 319 313 308 304 302 301 302 305 302 306 306 306 308 306 305
315 316 317 316 314 316 317 317 316 314 313 311 311 312 312 309 313 311 309 308 307 309
314 315 314 315 319 323 323 322 321 319 320 318 323 321 323 321 324 325 322 319 319 318
305 309 313 317 320 324 324 326 327 326 328 327 331 328 325 323 327 328 323 324 325 325
317 321 323 327 330 332 329 329 328 331 334 335 334 334 331 332 336 335 332 333 333 336
Wind_Speed_850mb
43 45 48 50 50 51 50 50 51 51 50 50 49 48 48 49 49 47 46 46 46 54
21 25 27 30 33 36 38 39 41 41 42 45 48 50 48 45 42 43 48 51 54 56
18 20 23 25 27 29 30 32 34 36 38 39 38 37 37 39 43 45 50 51 52 54
10 11 14 16 19 21 23 25 27 31 35 36 35 38 41 43 46 47 49 52 56 58
4 5 8 9 11 13 16 18 19 22 24 26 29 32 35 37 38 39 40 42 43 44
2 4 6 7 10 12 15 17 18 19 20 21 23 26 28 31 33 35 37 39 41 42
3 5 7 10 12 15 16 17 19 20 21 23 24 27 29 30 32 33 35 39 41 42
7 8 10 12 14 17 18 19 20 22 24 25 27 31 32 31 33 36 35 36 38 39
9 11 12 12 14 15 17 17 20 22 23 25 29 34 37 36 35 35 38 39 38 39
17 18 19 19 19 17 18 20 21 20 20 22 26 33 37 41 38 40 42 43 46 48
20 20 21 21 23 25 25 25 27 27 28 29 32 38 41 48 41 40 42 44 47 49
20 21 23 24 24 25 26 26 27 30 31 32 32 37 42 46 46 44 44 44 47 50
18 20 21 23 23 23 23 23 23 25 27 31 31 33 37 41 43 42 44 48 48 49
14 15 15 16 17 18 20 20 21 22 25 28 30 30 33 36 37 40 46 45 47 49
Wind_Direction_850mb
238 243 247 250 255 259 261 263 263 263 265 267 268 268 270 271 273 272 266 267 269 275
219 228 233 241 250 256 259 259 259 260 261 263 267 270 270 270 269 270 270 271 272 275
212 222 233 240 246 252 256 257 258 259 262 264 267 271 271 269 267 263 266 266 269 272
202 216 228 238 243 249 255 258 260 262 266 266 267 266 266 265 264 263 264 268 269 270
206 237 254 264 266 269 272 275 277 277 275 271 269 268 268 268 268 269 267 268 270 273
255 266 275 282 289 292 292 291 290 288 285 283 281 279 279 279 279 281 283 284 285 287
355 336 325 319 314 308 305 305 303 300 299 296 293 289 286 284 286 290 293 293 294 294
350 347 338 328 319 314 311 308 308 306 304 303 299 292 291 294 297 296 294 295 296 297
330 323 315 311 306 303 304 303 307 308 308 306 303 301 302 303 301 299 297 295 292 291
323 322 321 319 318 314 316 319 313 308 304 302 301 302 305 302 306 306 306 308 306 305
315 316 317 316 314 316 317 317 316 314 313 311 311 312 312 309 313 311 309 308 307 309
314 315 314 315 319 323 323 322 321 319 320 318 323 321 323 321 324 325 322 319 319 318
305 309 313 317 320 324 324 326 327 326 328 327 331 328 325 323 327 328 323 324 325 325
317 321 323 327 330 332 329 329 328 331 334 335 334 334 331 332 336 335 332 333 333 336